Regional Weather Roundup
Issued by NWS Charleston, SC

Current Version | Previous Version | Text Only | Print | Product List | Glossary Off
Versions: 1 2 3 4 5 6 7 8 9 10 11 12 13 14 15 16 17 18 19 20 21 22 23 24 25 26 27 28 29 30 31 32 33 34 35 36 37 38 39 40 41 42 43 44 45 46 47 48 49 50
660 ASUS42 KCHS 232213 RWRCHS REGIONAL WEATHER ROUNDUP NATIONAL WEATHER SERVICE CHARLESTON SC 600 PM EDT MON MAY 23 2016 NOTE: "FAIR" INDICATES FEW OR NO CLOUDS BELOW 12,000 FEET WITH NO SIGNIFICANT WEATHER AND/OR OBSTRUCTIONS TO VISIBILITY. NOT ALL STATIONS ARE QUALITY CONTROLLED. USE DATA WITH CAUTION... ESPECIALLY DEWPOINT OBSERVATIONS. SCZ027-030-031-034>040-042>050-232300- ...SOUTHEAST SOUTH CAROLINA... CITY SKY/WX TMP DP RH WIND PRES REMARKS N CHARLESTON PTSUNNY 78 50 37 NW12 29.95S WATERFRONT PRK N/A 77 51 40 N9 29.93R MOUNT PLEASANT FAIR 75 52 43 N6 29.96R JOHNS ISLAND FAIR 81 52 36 W8 29.95S PINOPOLIS N/A 77 54 44 N7 29.88F MONCKS CORNER MOCLDY 72 45 37 N5 29.96S SUMMERVILLE CLOUDY 75 54 46 N5 29.97R BEAUFORT MCAS MOSUNNY 81 50 33 N7 29.94S BEAUFORT ARPT MOCLDY 81 46 30 N9 29.94S HILTON HEAD IS MOSUNNY 82 57 42 MISG 29.95S WALTERBORO PTCLDY 79 50 36 N6 29.96S ALLENDALE FAIR 79 48 34 CALM 29.95R ...SOUTHERN MIDLANDS AND PEE DEE... CITY SKY/WX TMP DP RH WIND PRES REMARKS GEORGETOWN CLOUDY 72 50 46 NW6 29.97R KINGSTREE CLOUDY 72 50 46 NW5 29.97S ORANGEBURG CLOUDY 75 50 41 NE6 29.97R BARNWELL MOCLDY 81 52 36 NE8 29.96S AIKEN MOCLDY 73 48 40 NE9G18 30.00S MANNING CLOUDY 72 52 49 N7 29.98R COLUMBIA MOSUNNY 78 48 34 N9 29.97R SUMTER CLOUDY 73 51 46 N9 29.96R FLORENCE CLOUDY 73 53 49 N10 29.98R MYRTLE BEACH PTSUNNY 72 50 46 NW7 29.97S N MYRTLE BEACH CLOUDY 70 55 59 N8 29.95S $$ GAZ063-065-086>088-099>101-113>116-118-119-134>141-150-232300- ...SOUTHEAST GEORGIA... CITY SKY/WX TMP DP RH WIND PRES REMARKS SAVANNAH ARPT MOSUNNY 83 45 26 NW7 29.94S HUNTER AAF SUNNY 82 51 33 NW8 29.92S FORT STEWART SUNNY 83 47 28 N7 29.91S STATESBORO SUNNY 82 50 33 NE3 29.94S SYLVANIA PTCLDY 83 48 30 N7 29.95S CLAXTON MOCLDY 82 52 35 CALM 29.94S ...CSRA...CENTRAL AND FAR SOUTHEAST GEORGIA... CITY SKY/WX TMP DP RH WIND PRES REMARKS THOMSON SUNNY 82 52 35 N3 29.99S AUGUSTA-BUSH MOSUNNY 79 48 33 N3 29.94S AUGUSTA-DANIEL CLOUDY 81 49 32 NE9 29.96S SWAINSBORO FAIR 82 45 26 CALM 29.95S VIDALIA MOSUNNY 81 50 34 W3 29.95R EASTMAN FAIR 84 48 28 NW5 29.97S HAZLEHURST MOCLDY 84 46 26 CALM 29.94R ALMA PTSUNNY 83 49 30 E3 29.93S WAYCROSS SUNNY 83 53 34 NW10 29.93S JESUP FAIR 79 46 31 N7 29.93S BAXLEY FAIR 82 45 26 N5 29.94S BRUNSWICK CLOUDY 84 57 39 SE5 29.95R SAINT SIMONS SUNNY 78 54 43 S9 29.94R $$ SCZ027-028-034-036>038-045-046-048>050-GAZ119-141-232300- ...LAKE AND SUPPLEMENTAL COASTAL OBSERVATIONS... STATION/POSITION TIME TEMP WIND PRES WAVE SWELL AIR SEA DIR/SP/G HT/PER HT/PER/DIR (UTC) (F) (DEG/KT/KT) (MB) (FT/S) (FT/S/D) WINYAH BAY NOT AVBL LAKE MURRAY 2100 74 360/ 4/ 7 1014.6S ACE BASIN NERRS NOT AVBL FORT PULASKI 2100 77 76 120/ 5/ 9 1014.2F SAPELO ISLAND 2100 83 130/ 7 1014.0S $$ ANZ835-935-AMZ111-154-330-350-352-354-370-450-454-472-232300- ...C-MAN AND BUOY OBSERVATIONS... STATION/POSITION TIME TEMP WIND PRES WAVE SWELL AIR SEA DIR/SP/G HT/PER HT/PER/DIR (UTC) (F) (DEG/KT/KT) (MB) (FT/S) (FT/S/D) BUOY 41004 2150 72 76 360/ 6/ 8 1014.1R 2/ 9 2/ 9 BUOY 41008 NOT AVBL FOLLY BEACH CMAN 2200 75 150/ 2/ 3 1014.5R CAPERS NEARSHORE 2108 75 75 320/ 10/ 16 1013.7F FRIPP NEARSHORE 2108 74 78 160/ 8/ 8 1013.4F STATION/POSITION TIME TEMP WIND PRES WAVE SWELL AIR SEA DIR/SP/G HT/PER HT/PER/DIR (UTC) (F) (DEG/KT/KT) (MB) (FT/S) (FT/S/D) 5E ST. MARYS GA 2121 80 N/A 2/ 9 FRYING PAN BUOY 2100 70 76 300/ 14/ 19 1013.5R BUOY 41025 2150 60 67 340/ 10/ 12 1012.2R 3/ 9 2/100/ 9 CAPE LOOKOUT NC 2200 65 340/ 12/ 14 1012.5R BUOY 41002 2150 74 77 300/ 10/ 14 1013.1 5/ 7 3/ 20/ 7 BUOY 41010 2120 78 80 350/ 6/ 8 1013.6F ST AUGUSTINE FL 2200 77 81 60/ 11/ 12 1014.8R $$

USA.gov is the U.S. government's official web portal to all federal, state and local government web resources and services.